This demonstration page uses our WeatherBlox Daily Observations layout. Learn more.

Left ArrowRight Arrow

40.92945, -100.16068

Hourly Observations for October 28, 2016

Temp ( °F °C ) Dew Point ( °F °C ) Humidity (%) Winds ( mph kmh ) Pressure ( in mb ) Visibility ( mi km ) Precip ( " mm )
12:15 am 00:15 Clear 64 17.6 43 6.1 47 47 S 14 22 29.91 1013 10 16 N/A
12:35 am 00:35 Clear 63 17.3 43 6.2 48 48 S 14 22 29.88 1012 10 16 N/A
12:55 am 00:55 Clear 62 16.8 43 6.3 50 50 S 12 19 29.88 1012 10 16 N/A
1:15 am 01:15 Clear 62 16.6 44 6.4 51 51 S 13 20 29.88 1012 10 16 N/A
1:35 am 01:35 Clear 62 16.5 44 6.5 52 52 S 14 22 29.88 1012 10 16 N/A
1:55 am 01:55 Clear 60 15.8 44 6.5 54 54 S 13 20 29.91 1013 10 16 N/A
2:15 am 02:15 Clear 61 15.9 44 6.7 55 55 S 14 22 29.88 1012 10 16 N/A
2:35 am 02:35 Clear 60 15.6 44 6.8 56 56 S 12 19 29.91 1013 10 16 N/A
2:55 am 02:55 Clear 60 15.6 45 7 57 57 S 10 17 29.85 1011 10 16 N/A
3:15 am 03:15 Clear 59 15.2 45 7 58 58 Calm 29.91 1013 10 16 N/A
3:35 am 03:35 Clear 56 13.3 44 6.8 65 65 E 5 7 29.88 1012 10 16 N/A
3:55 am 03:55 Clear 59 15.2 45 7.1 59 59 ENE 3 6 29.91 1013 10 16 N/A
4:15 am 04:15 Clear 60 15.5 45 7.2 58 58 SSE 6 9 29.88 1012 10 16 N/A
4:35 am 04:35 Clear 60 15.6 45 7.3 58 58 S 10 17 29.85 1011 10 16 N/A
4:55 am 04:55 Clear 59 15 46 7.5 61 61 S 10 17 29.88 1012 10 16 N/A
5:15 am 05:15 Clear 57 14.1 45 7.3 64 64 S 9 15 29.88 1012 10 16 N/A
5:35 am 05:35 Clear 56 13.5 46 7.5 67 67 S 9 15 29.88 1012 10 16 N/A
5:55 am 05:55 Clear 56 13.5 46 7.5 67 67 S 6 9 29.88 1012 10 16 N/A
6:15 am 06:15 Clear 58 14.2 46 7.6 65 65 Calm 29.88 1012 10 16 N/A
6:35 am 06:35 Clear 58 14.4 46 7.6 64 64 SSW 6 9 29.88 1012 10 16 N/A
6:55 am 06:55 Clear 57 14 46 7.6 66 66 WSW 3 6 29.88 1012 10 16 N/A
7:15 am 07:15 Clear 54 12.2 45 7.3 72 72 S 6 9 29.91 1013 10 16 N/A
7:35 am 07:35 Clear 53 11.6 45 7.1 74 74 S 6 9 29.88 1012 10 16 N/A
7:55 am 07:55 Clear 53 11.6 45 7.1 74 74 S 3 6 29.88 1012 10 16 N/A
8:15 am 08:15 Sunny 51 10.5 44 6.5 76 76 SW 3 6 29.91 1013 10 16 N/A
8:35 am 08:35 Sunny 51 10.6 44 6.5 76 76 SW 3 6 29.91 1013 10 16 N/A
8:55 am 08:55 Sunny 52 11.2 44 6.9 75 75 SW 6 9 29.91 1013 10 16 N/A
9:15 am 09:15 Sunny 54 12 45 7.4 74 74 SW 5 7 29.91 1013 10 16 N/A
9:35 am 09:35 Sunny 57 14 46 8 67 67 SW 5 7 29.88 1012 10 16 N/A
9:55 am 09:55 Sunny 59 15 46 7.7 62 62 SW 6 9 29.88 1012 10 16 N/A
10:15 am 10:15 Sunny 61 15.9 45 7.4 57 57 SW 6 9 29.85 1011 10 16 N/A
10:35 am 10:35 Sunny 62 16.5 45 7 54 54 SW 7 11 29.85 1011 10 16 N/A
10:55 am 10:55 Sunny 63 17 45 7.2 53 53 SW 5 7 29.85 1011 10 16 N/A
11:15 am 11:15 Sunny 64 18 45 7.3 50 50 WSW 5 7 29.85 1011 10 16 N/A
11:35 am 11:35 Sunny 66 18.7 44 6.7 46 46 WSW 6 9 29.85 1011 10 16 N/A
11:55 am 11:55 Sunny 67 19.6 44 6.9 44 44 SW 6 9 29.83 1010 10 16 N/A
12:15 pm 12:15 Sunny 69 20.7 44 6.8 41 41 SW 6 9 29.83 1010 10 16 N/A
12:35 pm 12:35 Sunny 72 22 42 5.7 35 35 W 6 9 29.83 1010 10 16 N/A
12:55 pm 12:55 Sunny 75 24 43 6.1 32 32 W 7 11 29.80 1009 10 16 N/A
1:15 pm 13:15 Sunny 77 25.2 42 5.7 29 29 W 8 13 29.77 1008 10 16 N/A
1:35 pm 13:35 Sunny 80 26.7 41 5.2 25 25 WNW 8 13 29.74 1007 10 16 N/A
1:55 pm 13:55 Sunny 81 27.2 42 5.7 25 25 WNW 10 17 29.74 1007 10 16 N/A
2:15 pm 14:15 Sunny 84 28.8 42 5.7 23 23 NW 7 11 29.71 1006 10 16 N/A
2:35 pm 14:35 Sunny 83 28.3 42 5.4 23 23 W 9 15 29.71 1006 10 16 N/A
2:55 pm 14:55 Sunny 84 28.7 41 5.2 22 22 WNW 10 17 29.71 1006 10 16 N/A
3:15 pm 15:15 Sunny 83 28.2 42 5.8 24 24 WNW 10 17 29.71 1006 10 16 N/A
3:35 pm 15:35 Sunny 83 28.4 41 4.9 22 22 WNW 10 17 29.71 1006 10 16 N/A
3:55 pm 15:55 Sunny 82 28 42 5.3 24 24 WNW 9 15 29.71 1006 10 16 N/A
4:15 pm 16:15 Sunny 80 26.9 43 6.3 27 27 W 8 13 29.71 1006 10 16 N/A
4:35 pm 16:35 Sunny 78 25.6 45 7.3 31 31 W 6 9 29.71 1006 10 16 N/A
4:55 pm 16:55 Sunny 77 25.2 47 8.5 35 35 W 3 6 29.74 1007 10 16 N/A
5:15 pm 17:15 Sunny 79 26.1 47 8.4 33 33 W 3 6 29.71 1006 7 11 N/A
5:35 pm 17:35 Sunny 78 25.5 44 6.8 30 30 WSW 3 6 29.71 1006 10 16 N/A
5:55 pm 17:55 Sunny 76 24.7 46 7.9 34 34 Calm 29.74 1007 10 16 N/A
6:15 pm 18:15 Sunny 74 23.5 45 7.1 35 35 S 3 6 29.74 1007 7 11 N/A
6:35 pm 18:35 Sunny 72 22 45 7.2 39 39 Calm 29.80 1009 7 11 N/A
6:55 pm 18:55 Clear 70 21.1 44 6.7 39 39 Calm 29.80 1009 7 11 N/A
7:15 pm 19:15 Clear 69 20.8 43 5.9 38 38 SSW 5 7 29.80 1009 10 16 N/A
7:35 pm 19:35 Clear 67 19.5 43 5.9 41 41 S 3 6 29.80 1009 7 11 N/A
7:55 pm 19:55 Clear 65 18.5 43 6.2 45 45 Calm 29.83 1010 10 16 N/A
8:15 pm 20:15 Clear 67 19.2 43 5.9 42 42 SSW 5 7 29.83 1010 10 16 N/A
8:35 pm 20:35 Clear 64 18 44 6.5 47 47 S 5 7 29.85 1011 10 16 N/A
8:55 pm 20:55 Clear 65 18.5 42 5.8 44 44 Calm 29.85 1011 10 16 N/A
9:15 pm 21:15 Clear 64 17.5 42 5.5 45 45 Calm 29.85 1011 10 16 N/A
9:35 pm 21:35 Clear 60 15.5 42 5.8 53 53 Calm 29.88 1012 10 16 N/A
9:55 pm 21:55 Clear 58 14.5 43 6.2 58 58 Calm 29.88 1012 7 11 N/A
10:15 pm 22:15 Clear 61 15.9 42 5.8 51 51 SW 3 6 29.85 1011 10 16 N/A
10:35 pm 22:35 Clear 57 13.9 42 5.6 58 58 Calm 29.88 1012 10 16 N/A
10:55 pm 22:55 Clear 54 12.2 42 5.8 65 65 Calm 29.91 1013 10 16 N/A
11:15 pm 23:15 Clear 58 14.5 41 5.2 54 54 Calm 29.88 1012 10 16 N/A
11:35 pm 23:35 Clear 52 11.2 42 5.5 68 68 Calm 29.91 1013 7 11 N/A
11:55 pm 23:55 Clear 52 11 42 5.5 69 69 N 6 9 29.91 1013 10 16 N/A

Powered by AerisWeather